全球星 M060星 (GLOBALSTAR M060)

导读

GLOBALSTAR M060是全球星(Globalstar)系统下的一颗低轨通信卫星,由全球卫星通信联盟部署,于2000年2月8日发射升空。该卫星运行在高度约1414公里、倾角52度的近地轨道,属于全球星第一代空间段网络,主要为海洋、沙漠等偏远无地面信号覆盖区域提供语音通信与低速率数据传输服务,助力实现南北纬70度范围内的全域移动通信覆盖。

Basic Information
目录编号:
26083
目录名称:
GLOBALSTAR M060
国际标识:
2000-008C
轨道中心:
EARTH
卫星名称:
全球星 M060星
卫星全名:
全球星 M060星 (GLOBALSTAR M060)
卫星状态:
在轨 (已飞行9625 天)
发射日期:
2000-02-08 UTC
国别 :
(GLOB)
星等 :
--
Orbit Information
数据来源 国际轨道数据 AOE轨道数据
星历时间 2026-06-16T10:28:56+0800
9小时前
查看轨道信息
2026-06-16T03:00:00+0800
17小时前
查看轨道信息
半长轴 7980.804km 7980.804km
偏心率 0.0002801 0.0002832
轨道倾角 52.000° 52.001°
近地点辐角 142.325° 142.289°
升交点赤经 117.088° 117.961°
平近点角 230.737° 303.500°
近地点 1600.431km 1600.406km
远地点 1604.903km 1604.928km
周期 118.258分钟 118.258分钟
每日圈数 12.17679 12.17679
Detailed Information
固有亮度:
5
最大亮度:
7.9
平衡模式:
三轴稳定
覆盖范围:
全球
运营商:
全球星公司
运营商所在国:
美国
使用方式:
暂无
Satellite Introduction
全球星星座由48颗卫星加8颗备份星组成。这些卫星分布在8个倾角为52度的圆形轨道平面上,每个轨道平面6颗卫星,另有1 颗备用星。轨道高度约为1414km,传输时延和处理时延小于300ms,整个系统的覆盖区为南北纬70度以内的地区。该卫星已退役。
2D Orbit Map
3D Orbit Map
Orbit Altitude Analysis Chart
Orbit Inclination Analysis Chart
Orbit Comprehensive Analysis Chart
View Comprehensive Chart